Regional Weather Roundup
Issued by NWS

Home | Current Version | Previous Version | Graphics & Text | Print | Product List | Glossary On
Versions: 1 2 3 4 5 6 7 8 9 10 11 12 13 14 15 16 17 18 19 20 21 22 23 24 25 26 27 28 29 30 31 32 33 34 35 36 37 38 39 40 41 42 43 44 45 46 47 48 49 50
771
ASUS43 KIND 201359
RWRIN

WEATHER ROUNDUP FOR INDIANA
NATIONAL WEATHER SERVICE INDIANAPOLIS IN
900 AM EST MON NOV 20 2017

NOTE: "FAIR" INDICATES FEW OR NO CLOUDS BELOW 12,000 FEET WITH NO
SIGNIFICANT WEATHER AND/OR OBSTRUCTIONS TO VISIBILITY.

* - STATION DOES NOT REPORT WEATHER SUCH AS PRECIPITATION OR FOG.

+ - STATION NOT QUALITY CONTROLLED BY THE NATIONAL WEATHER SERVICE.
    USE DATA WITH CAUTION...ESPECIALLY DEWPOINT AND RELATIVE
    HUMIDITY OBSERVATIONS.

INZ001>003-010>013-019-020-201500-
NORTHWEST INDIANA

CITY           SKY/WX    TMP DP  RH WIND       PRES   REMARKS
GARY /AIRPORT/ MOSUNNY   37  25  60 SW14G26   29.97F WCI  29
KNOX *+        SUNNY     32  27  80 S15G25    30.03S WCI  22
LA PORTE +     SUNNY     32  25  75 S12       30.01S WCI  23
RENSSELAER +   SUNNY     34  23  64 S15       30.05S WCI  24

$$

LMZ046-743>745-201500-
SOUTHERN LAKE MICHIGAN

STATION/POSITION TIME  TEMP    WIND        PRES    WAVE
                       AIR SEA DIR/SP/G            HT
                 (UTC) (F)     (DEG/KT/KT) (MB)    (FT)
BURNS HARBOR     1340   36     190/ 19/ 25 1015.2F
MICHIGAN CITY    1330   34     180/ 14/ 17   N/A

$$

INZ004-005-014>016-021>024-201500-
NORTH CENTRAL INDIANA

CITY           SKY/WX    TMP DP  RH WIND       PRES   REMARKS
ELKHART        SUNNY     32  23  69 SW10      30.02S WCI  24
GOSHEN         SUNNY     34  21  59 S18G25    30.03F WCI  23
PERU/GRISSOM   CLOUDY    33  24  67 SW14      30.08S WCI  24
SOUTH BEND     SUNNY     32  24  72 S13       30.01S WCI  22
WARSAW +       SUNNY     32  23  69 S7        30.06R WCI  26

$$

INZ006>009-017-018-025>027-201500-
NORTHEAST INDIANA

CITY           SKY/WX    TMP DP  RH WIND       PRES   REMARKS
AUBURN +       SUNNY     32  23  69 S8        30.08S WCI  25
FORT WAYNE     MOSUNNY   33  24  69 SW13      30.10S WCI  24
KENDALLVILLE + SUNNY     32  23  70 S13       30.05F WCI  22

$$

INZ028-029-035-036-043>045-051>053-201500-
WEST CENTRAL INDIANA

CITY           SKY/WX    TMP DP  RH WIND       PRES   REMARKS
CRAWFORDSVL +  CLOUDY    31  23  72 S14       30.13S WCI  21
LAFAYETTE      CLOUDY    33  23  66 SW8       30.11S WCI  26
TERRE HAUTE    CLOUDY    32  23  69 S8        30.16S WCI  25

$$

INZ030>032-037>040-046>048-054>057-064-065-201500-
CENTRAL INDIANA

CITY           SKY/WX    TMP DP  RH WIND       PRES   REMARKS
ANDERSON       SUNNY    N/A N/A N/A S12       30.15
COLUMBUS       MOSUNNY   28  21  74 S6        30.20F WCI  22
FRANKFORT +    MOSUNNY   35  26  71 SW10      30.12S WCI  27
GREENWOOD *+   CLOUDY    32  26  77 S7        30.17S WCI  26
INDIANAPOLIS   CLOUDY    30  22  72 S9        30.16S WCI  22
-EAGLE CREEK   MOSUNNY   31  21  66 S7        30.14F WCI  24
KOKOMO +       CLOUDY    34  23  64 S14       30.11S WCI  25
MT COMFORT *+  CLOUDY    30  27  86 S9        30.16S WCI  22
SHELBYVILLE    CLOUDY    31  22  69 S10       30.18S WCI  22

$$

INZ033-034-041-042-049-050-058-059-201500-
EAST CENTRAL INDIANA

CITY           SKY/WX    TMP DP  RH WIND       PRES   REMARKS
MUNCIE         CLOUDY    33  22  63 SW9       30.14S WCI  25
RICHMOND +     CLOUDY    28  25  86 S10       30.18S WCI  19

$$

INZ060-061-067>069-081>083-085>088-201500-
SOUTHWEST INDIANA

CITY           SKY/WX    TMP DP  RH WIND       PRES   REMARKS
EVANSVILLE     SUNNY     32  25  75 S7        30.25R WCI  26
HUNTINGBURG +  SUNNY     31  25  78 S8        30.24R WCI  23

$$

INZ062-063-066-070>080-084-089>092-201500-
SOUTH CENTRAL AND SOUTHEAST INDIANA

CITY           SKY/WX    TMP DP  RH WIND       PRES   REMARKS
BLOOMINGTON    MOSUNNY   28  21  75 SE5       30.18R WCI  23
MADISON *+     CLOUDY    32  27  80 CALM      30.25S
SEYMOUR +      CLOUDY    32  23  69 S9        30.22F WCI  24

$$





USA.gov is the U.S. government's official web portal to all federal, state and local government web resources and services.